TimeAWST,TemperatureF,Dew PointF,Humidity,Sea Level PressureIn,VisibilityMPH,Wind Direction,Wind SpeedMPH,Gust SpeedMPH,PrecipitationIn,Events,Conditions,WindDirDegrees,DateUTC
12:00 AM,86,65,40,29.80,,SW,18.4,,,,,220,2012-12-10 16:00:00
12:00 AM,86.0,66.2,51,29.80,6.2,SW,18.4,-,N/A,,Unknown,220,2012-12-10 16:00:00
12:30 AM,86.0,57.2,37,29.77,6.2,SSW,19.6,-,N/A,,Unknown,210,2012-12-10 16:30:00
1:00 AM,86.0,57.2,37,29.77,6.2,SSW,18.4,-,N/A,,Unknown,200,2012-12-10 17:00:00
1:30 AM,86.0,57.2,37,29.77,6.2,South,13.8,-,N/A,,Unknown,190,2012-12-10 17:30:00
2:00 AM,84,58,31,29.76,,South,10.4,,,,,190,2012-12-10 18:00:00
2:00 AM,84.2,59.0,42,29.74,6.2,South,10.4,-,N/A,,Unknown,190,2012-12-10 18:00:00
2:30 AM,84.2,59.0,42,29.74,6.2,South,10.4,-,N/A,,Unknown,180,2012-12-10 18:30:00
3:00 AM,85,58,30,29.75,,South,12.7,,,,,180,2012-12-10 19:00:00
3:00 AM,86.0,59.0,40,29.74,6.2,South,12.7,-,N/A,,Unknown,180,2012-12-10 19:00:00
3:30 AM,84.2,57.2,40,29.74,6.2,South,11.5,-,N/A,,Unknown,170,2012-12-10 19:30:00
4:00 AM,84.2,57.2,40,29.74,6.2,SSE,8.1,-,N/A,,Unknown,160,2012-12-10 20:00:00
4:30 AM,82.4,59.0,45,29.77,6.2,East,8.1,-,N/A,,Unknown,80,2012-12-10 20:30:00
5:00 AM,81,61,41,29.78,,North,8.1,,,,,10,2012-12-10 21:00:00
5:00 AM,80.6,60.8,51,29.77,6.2,North,8.1,-,N/A,,Unknown,10,2012-12-10 21:00:00
5:30 AM,78.8,60.8,54,29.77,6.2,North,5.8,-,N/A,,Unknown,360,2012-12-10 21:30:00
6:00 AM,79,63,48,29.79,19,NNW,6.9,,,,Partly Cloudy,340,2012-12-10 22:00:00
6:00 AM,78.8,62.6,57,29.77,-9999.0,NNW,6.9,-,N/A,,Clear,340,2012-12-10 22:00:00
6:30 AM,86.0,62.6,45,29.80,-9999.0,North,5.8,-,N/A,,Clear,360,2012-12-10 22:30:00
7:00 AM,89.6,60.8,38,29.80,-9999.0,North,8.1,-,N/A,,Clear,10,2012-12-10 23:00:00
7:30 AM,89.6,57.2,33,29.80,-9999.0,North,6.9,-,N/A,,Clear,360,2012-12-10 23:30:00
8:00 AM,90,59,25,29.82,,North,6.9,,,,,350,2012-12-11 00:00:00
8:00 AM,89.6,59.0,36,29.80,-9999.0,North,6.9,-,N/A,,Clear,350,2012-12-11 00:00:00
8:30 AM,91.4,60.8,36,29.80,-9999.0,North,5.8,-,N/A,,Clear,360,2012-12-11 00:30:00
9:00 AM,92,58,22,29.82,19,NNE,8.1,,,,Partly Cloudy,20,2012-12-11 01:00:00
9:00 AM,91.4,57.2,31,29.80,-9999.0,NNE,8.1,-,N/A,,Clear,20,2012-12-11 01:00:00
9:30 AM,93.2,57.2,30,29.80,-9999.0,NNE,8.1,-,N/A,,Clear,20,2012-12-11 01:30:00
10:00 AM,95.0,59.0,30,29.80,-9999.0,NNE,8.1,-,N/A,,Clear,20,2012-12-11 02:00:00
10:30 AM,95.0,60.8,32,29.80,-9999.0,NNE,10.4,-,N/A,,Clear,20,2012-12-11 02:30:00
11:00 AM,97,63,23,29.80,,NNE,9.2,,,,,20,2012-12-11 03:00:00
11:00 AM,96.8,62.6,32,29.80,-9999.0,NNE,9.2,-,N/A,,Clear,20,2012-12-11 03:00:00
11:30 AM,96.8,62.6,32,29.77,-9999.0,North,13.8,-,N/A,,Clear,350,2012-12-11 03:30:00
12:00 PM,97,61,21,29.78,19,North,13.8,,,,Partly Cloudy,350,2012-12-11 04:00:00
12:00 PM,96.8,60.8,30,29.77,-9999.0,North,13.8,-,N/A,,Clear,350,2012-12-11 04:00:00
12:30 PM,98.6,62.6,30,29.77,-9999.0,NW,17.3,-,N/A,,Clear,320,2012-12-11 04:30:00
1:00 PM,98.6,62.6,30,29.74,-9999.0,NNW,17.3,-,N/A,,Clear,330,2012-12-11 05:00:00
1:30 PM,95.0,66.2,39,29.74,-9999.0,NW,19.6,-,N/A,,Clear,320,2012-12-11 05:30:00
2:00 PM,96,62,23,29.73,,NW,19.6,,,,,320,2012-12-11 06:00:00
2:00 PM,96.8,62.6,32,29.71,-9999.0,NW,19.6,-,N/A,,Clear,320,2012-12-11 06:00:00
2:30 PM,98.6,62.6,30,29.71,-9999.0,WNW,19.6,-,N/A,,Clear,300,2012-12-11 06:30:00
3:00 PM,97,62,22,29.72,19,NW,18.4,,,,Partly Cloudy,310,2012-12-11 07:00:00
3:00 PM,96.8,60.8,30,29.71,-9999.0,NW,18.4,-,N/A,,Clear,310,2012-12-11 07:00:00
3:30 PM,96.8,60.8,30,29.68,6.2,NW,17.3,-,N/A,,Unknown,310,2012-12-11 07:30:00
4:00 PM,96.8,60.8,30,29.68,6.2,WNW,17.3,-,N/A,,Unknown,300,2012-12-11 08:00:00
4:30 PM,95.0,62.6,34,29.68,6.2,NW,16.1,-,N/A,,Unknown,310,2012-12-11 08:30:00
5:00 PM,94,62,25,29.71,,WNW,15.0,,,,,300,2012-12-11 09:00:00
5:00 PM,93.2,62.6,36,29.71,6.2,WNW,15.0,-,N/A,,Unknown,300,2012-12-11 09:00:00
5:30 PM,93.2,62.6,36,29.71,6.2,NW,16.1,-,N/A,,Unknown,310,2012-12-11 09:30:00
6:00 PM,91,63,30,29.74,,WNW,16.1,,,,,300,2012-12-11 10:00:00
6:00 PM,91.4,62.6,38,29.74,6.2,WNW,16.1,-,N/A,,Unknown,300,2012-12-11 10:00:00
6:30 PM,89.6,64.4,43,29.74,6.2,WNW,11.5,-,N/A,,Unknown,290,2012-12-11 10:30:00
7:00 PM,89.6,66.2,46,29.77,6.2,WNW,10.4,-,N/A,,Unknown,290,2012-12-11 11:00:00
7:30 PM,91.4,59.0,34,29.80,6.2,SW,11.5,-,N/A,,Mostly Cloudy,220,2012-12-11 11:30:00
8:00 PM,92,60,25,29.82,,SW,9.2,,,,,220,2012-12-11 12:00:00
8:00 PM,91.4,60.8,36,29.80,6.2,SW,9.2,-,N/A,,Overcast,220,2012-12-11 12:00:00
8:30 PM,86.0,64.4,48,29.80,6.2,SSW,8.1,-,N/A,Rain,Light Rain,210,2012-12-11 12:30:00
9:00 PM,88,63,33,29.83,,South,9.2,,,,,190,2012-12-11 13:00:00
9:00 PM,87.8,62.6,43,29.83,6.2,South,9.2,-,N/A,,Overcast,190,2012-12-11 13:00:00
9:30 PM,86.0,66.2,51,29.83,6.2,SSE,15.0,-,N/A,Rain,Light Rain Showers,160,2012-12-11 13:30:00
10:00 PM,86.0,66.2,51,29.86,6.2,SSE,19.6,-,N/A,Rain,Light Rain Showers,160,2012-12-11 14:00:00
10:30 PM,86.0,66.2,51,29.86,6.2,SE,13.8,-,N/A,,Unknown,140,2012-12-11 14:30:00
11:00 PM,84,65,43,29.87,,ESE,16.1,,,,,120,2012-12-11 15:00:00
11:04 PM,84.2,66.2,55,29.86,6.2,ESE,18.4,31.1,N/A,,Unknown,110,2012-12-11 15:04:00
11:30 PM,82.4,68.0,62,29.86,6.2,East,18.4,-,N/A,,Unknown,100,2012-12-11 15:30:00